Caro, MI

5:18 AM EDT on September 16, 2019 (GMT -0400)
Caro

Weather History for KCFS - August, 2019

Change the Weather History Date:

Wednesday, August 21, 2019

  Actual Average (KMBS) Record (KMBS)
Temperature  
Mean Temperature 76 °F -  
Max Temperature 85 °F 77 °F 96 °F (2003)
Min Temperature 64 °F 55 °F 44 °F (2004)
Cooling Degree Days 10    
Growing Degree Days 26 (Base 50)    
Moisture  
Dew Point 67 °F    
Average Humidity 81    
Maximum Humidity 95    
Minimum Humidity 47    
Precipitation  
Precipitation 0.00 in - - ()
Sea Level Pressure  
Sea Level Pressure 29.90 in    
Wind  
Wind Speed 3 mph (WSW)    
Max Wind Speed 15 mph    
Max Gust Speed 22 mph    
Visibility 8 miles    
Events Fog    
Averages and records for this station are not official NWS values.
T = Trace of Precipitation, MM = Missing Value Source: NWS Daily Summary

Daily Weather History Graph

Daily Weather History Graph

Search for Another Location

Airport or City:

Astronomy

Aug. 21, 2019 Rise Set
Actual Time 6:45 AM EDT 8:27 PM EDT
Civil Twilight 6:14 AM EDT 8:58 PM EDT
Nautical Twilight 5:37 AM EDT 9:34 PM EDT
Astronomical Twilight 4:58 AM EDT 10:14 PM EDT
Moon 11:34 PM EDT (8/21) 12:29 PM EDT (8/21)
Length of Visible Light 14h 43m
Length of Day
13h 42m
Waning Gibbous, 69% of the Moon is Illuminated
Aug 21
Waning Gibbous
Aug 23
Last Quarter
Aug 30
New
Sep 5
First Quarter
Sep 14
Full

Hourly Weather History & Observations

Time (EDT) Temp. Heat Index Dew Point Humidity Pressure Visibility Wind Dir Wind Speed Gust Speed Precip Events Conditions
12:17 AM 68.2 °F - 65.8 °F 92% 29.93 in 10.0 mi Calm Calm - N/A   Clear
12:35 AM 68.5 °F - 65.7 °F 90% 29.93 in 10.0 mi Calm Calm - N/A   Scattered Clouds
12:36 AM 68.4 °F - 65.5 °F 90% 29.93 in 10.0 mi Calm Calm - N/A   Scattered Clouds
12:55 AM 68.5 °F - 65.8 °F 91% 29.93 in 10.0 mi Calm Calm - N/A   Mostly Cloudy
1:15 AM 68.0 °F - 65.3 °F 91% 29.92 in 10.0 mi SW 3.5 mph - N/A   Scattered Clouds
1:20 AM 68.0 °F - 65.3 °F 91% 29.92 in 10.0 mi SW 3.5 mph - N/A   Scattered Clouds
1:38 AM 67.8 °F - 65.3 °F 92% 29.92 in 10.0 mi SSW 3.5 mph - N/A   Clear
1:56 AM 68.0 °F - 65.5 °F 92% 29.92 in 10.0 mi Calm Calm - N/A   Clear
2:15 AM 68.0 °F - 65.3 °F 91% 29.92 in 10.0 mi SSW 3.5 mph - N/A   Clear
2:16 AM 68.0 °F - 65.3 °F 91% 29.92 in 10.0 mi SW 3.5 mph - N/A   Clear
2:35 AM 68.0 °F - 65.3 °F 91% 29.92 in 10.0 mi Calm Calm - N/A   Clear
2:36 AM 68.0 °F - 65.3 °F 91% 29.92 in 10.0 mi Calm Calm - N/A   Clear
2:59 AM 67.3 °F - 64.9 °F 92% 29.92 in 10.0 mi Calm Calm - N/A   Clear
3:17 AM 67.5 °F - 64.8 °F 91% 29.92 in 7.0 mi Calm Calm - N/A   Clear
3:35 AM 67.1 °F - 65.1 °F 93% 29.92 in 7.0 mi Calm Calm - N/A   Clear
3:36 AM 67.1 °F - 65.1 °F 93% 29.92 in 7.0 mi Calm Calm - N/A   Clear
3:55 AM 67.3 °F - 65.3 °F 93% 29.91 in 7.0 mi Calm Calm - N/A   Clear
3:56 AM 67.3 °F - 65.3 °F 93% 29.91 in 7.0 mi Calm Calm - N/A   Clear
4:15 AM 67.5 °F - 65.5 °F 93% 29.91 in 5.0 mi SSW 3.5 mph - N/A   Mostly Cloudy
4:38 AM 68.4 °F - 66.4 °F 93% 29.91 in 4.0 mi Calm Calm - N/A   Overcast
4:56 AM 69.1 °F - 67.3 °F 94% 29.91 in 1.2 mi SW 3.5 mph - N/A   Overcast
5:15 AM 69.3 °F - 67.5 °F 94% 29.91 in 0.8 mi WSW 3.5 mph - N/A   Overcast
5:16 AM 69.3 °F - 67.5 °F 94% 29.91 in 0.8 mi West 3.5 mph - N/A   Overcast
5:35 AM 69.3 °F - 67.5 °F 94% 29.91 in 0.2 mi West 3.5 mph - N/A Fog Fog
5:36 AM 69.3 °F - 67.5 °F 94% 29.91 in 0.2 mi West 3.5 mph - N/A Fog Fog
5:59 AM 68.9 °F - 67.1 °F 94% 29.91 in 0.2 mi WSW 3.5 mph - N/A Fog Fog
6:17 AM 68.9 °F - 67.1 °F 94% 29.91 in 0.2 mi WSW 3.5 mph - N/A Fog Fog
6:35 AM 68.7 °F - 67.1 °F 95% 29.91 in 0.5 mi Calm Calm - N/A Fog Fog
6:55 AM 68.9 °F - 67.1 °F 94% 29.91 in 0.5 mi Calm Calm - N/A Fog Fog
6:56 AM 68.9 °F - 67.1 °F 94% 29.91 in 0.5 mi Calm Calm - N/A Fog Fog
7:15 AM 68.5 °F - 67.1 °F 95% 29.91 in 0.2 mi SW 3.5 mph - N/A Fog Fog
7:20 AM 68.5 °F - 67.1 °F 95% 29.91 in 0.2 mi Calm Calm - N/A Fog Fog
7:38 AM 68.5 °F - 67.1 °F 95% 29.91 in 0.2 mi WSW 3.5 mph - N/A Fog Fog
7:56 AM 68.9 °F - 67.1 °F 94% 29.90 in 0.2 mi Calm Calm - N/A Fog Fog
8:15 AM 68.5 °F - 66.9 °F 95% 29.90 in 0.2 mi Calm Calm - N/A Fog Fog
8:16 AM 68.5 °F - 66.9 °F 95% 29.90 in 0.2 mi Calm Calm - N/A Fog Fog
8:35 AM 69.3 °F - 67.6 °F 95% 29.90 in 0.5 mi South 3.5 mph - N/A Fog Fog
8:36 AM 69.1 °F - 67.6 °F 95% 29.90 in 0.5 mi South 3.5 mph - N/A Fog Fog
8:59 AM 69.4 °F - 67.6 °F 94% 29.89 in 2.0 mi South 3.5 mph - N/A   Overcast
9:17 AM 69.8 °F - 67.1 °F 91% 29.88 in 5.0 mi SSE 3.5 mph - N/A   Overcast
9:35 AM 71.2 °F - 67.3 °F 87% 29.88 in 7.0 mi WSW 4.6 mph - N/A   Overcast
9:55 AM 72.0 °F - 67.1 °F 85% 29.90 in 10.0 mi SSW 4.6 mph - N/A   Mostly Cloudy
9:56 AM 71.8 °F - 67.1 °F 85% 29.90 in 7.0 mi SSW 4.6 mph - N/A   Mostly Cloudy
10:15 AM 73.6 °F - 67.5 °F 81% 29.91 in 10.0 mi SW 4.6 mph - N/A   Scattered Clouds
10:20 AM 73.9 °F - 67.3 °F 80% 29.92 in 10.0 mi SW 4.6 mph - N/A   Clear
10:38 AM 75.9 °F - 68.5 °F 78% 29.92 in 10.0 mi WSW 6.9 mph - N/A   Scattered Clouds
10:56 AM 76.8 °F - 68.9 °F 76% 29.92 in 10.0 mi WSW 5.8 mph - N/A   Mostly Cloudy
11:15 AM 76.5 °F - 68.9 °F 77% 29.92 in 10.0 mi WSW 9.2 mph - N/A   Mostly Cloudy
11:16 AM 76.6 °F - 68.9 °F 77% 29.92 in 10.0 mi SW 9.2 mph - N/A   Mostly Cloudy
11:35 AM 76.5 °F - 69.4 °F 79% 29.92 in 10.0 mi WSW 9.2 mph - N/A   Mostly Cloudy
11:36 AM 76.6 °F - 69.4 °F 78% 29.92 in 10.0 mi WSW 8.1 mph - N/A   Mostly Cloudy
11:59 AM 78.4 °F - 70.0 °F 75% 29.92 in 10.0 mi SW 8.1 mph - N/A   Mostly Cloudy
12:17 PM 79.7 °F - 70.2 °F 73% 29.91 in 10.0 mi SW 9.2 mph - N/A   Mostly Cloudy
12:35 PM 79.9 °F - 70.0 °F 72% 29.91 in 10.0 mi SW 10.4 mph - N/A   Scattered Clouds
12:55 PM 81.3 °F 84.8 °F 70.0 °F 68% 29.90 in 10.0 mi SW 9.2 mph - N/A   Scattered Clouds
1:15 PM 82.8 °F 86.7 °F 69.8 °F 65% 29.89 in 10.0 mi WSW 9.2 mph - N/A   Clear
1:20 PM 83.5 °F 87.7 °F 70.2 °F 64% 29.89 in 10.0 mi SW 13.8 mph - N/A   Clear
1:38 PM 83.7 °F 87.5 °F 69.4 °F 62% 29.88 in 10.0 mi SW 13.8 mph 19.6 mph N/A   Clear
1:56 PM 84.2 °F 88.4 °F 70.0 °F 62% 29.87 in 10.0 mi SW 9.2 mph - N/A   Scattered Clouds
2:15 PM 84.4 °F 88.5 °F 69.4 °F 61% 29.87 in 10.0 mi SSW 9.2 mph - N/A   Scattered Clouds
2:35 PM 81.9 °F 85.2 °F 68.9 °F 65% 29.86 in 10.0 mi SSW 12.7 mph 17.3 mph N/A   Clear
2:36 PM 81.5 °F 84.6 °F 68.5 °F 65% 29.86 in 10.0 mi SSW 11.5 mph - N/A   Clear
2:59 PM 81.1 °F 84.4 °F 69.4 °F 67% 29.86 in 10.0 mi SW 12.7 mph 17.3 mph N/A   Clear
3:16 PM 81.1 °F 83.2 °F 66.2 °F 60% 29.87 in 10.0 mi SW 15.0 mph 20.7 mph N/A   Clear
3:35 PM 79.5 °F - 67.8 °F 67% 29.87 in 10.0 mi SW 11.5 mph - N/A   Scattered Clouds
3:36 PM 79.7 °F - 67.8 °F 67% 29.88 in 10.0 mi SW 11.5 mph - N/A   Scattered Clouds
3:55 PM 78.3 °F - 67.5 °F 69% 29.87 in 10.0 mi SSW 8.1 mph - N/A   Scattered Clouds
4:15 PM 80.6 °F 83.5 °F 68.5 °F 67% 29.86 in 10.0 mi SW 9.2 mph - N/A   Scattered Clouds
4:38 PM 82.4 °F 85.8 °F 69.3 °F 64% 29.85 in 10.0 mi SW 5.8 mph - N/A   Scattered Clouds
4:56 PM 83.3 °F 87.1 °F 69.6 °F 63% 29.85 in 10.0 mi SW 10.4 mph - N/A   Clear
5:15 PM 83.1 °F 87.6 °F 70.5 °F 66% 29.85 in 10.0 mi SSW 8.1 mph - N/A   Clear
5:35 PM 83.1 °F 88.1 °F 71.6 °F 68% 29.86 in 10.0 mi WSW 9.2 mph - N/A   Scattered Clouds
5:36 PM 83.1 °F 88.1 °F 71.4 °F 68% 29.86 in 10.0 mi SW 8.1 mph - N/A   Scattered Clouds
5:59 PM 85.1 °F 85.9 °F 62.6 °F 47% 29.85 in 10.0 mi West 13.8 mph 18.4 mph N/A   Clear
6:17 PM 84.2 °F 85.0 °F 62.8 °F 48% 29.85 in 10.0 mi West 11.5 mph - N/A   Clear
6:35 PM 82.8 °F 83.4 °F 62.1 °F 49% 29.86 in 10.0 mi West 11.5 mph 20.7 mph N/A   Scattered Clouds
6:55 PM 80.2 °F 82.5 °F 66.4 °F 63% 29.86 in 10.0 mi NNW 6.9 mph - N/A   Mostly Cloudy
6:56 PM 80.1 °F 82.2 °F 66.4 °F 63% 29.86 in 10.0 mi NNW 6.9 mph - N/A   Mostly Cloudy
7:15 PM 78.8 °F - 66.0 °F 65% 29.86 in 10.0 mi NNW 8.1 mph - N/A   Mostly Cloudy
7:19 PM 79.0 °F - 66.2 °F 65% 29.86 in 10.0 mi NNW 10.4 mph - N/A   Mostly Cloudy
7:38 PM 78.3 °F - 66.2 °F 66% 29.87 in 10.0 mi NW 11.5 mph 18.4 mph N/A   Scattered Clouds
7:56 PM 77.2 °F - 63.7 °F 63% 29.87 in 10.0 mi NW 15.0 mph 21.9 mph N/A   Scattered Clouds
8:15 PM 74.1 °F - 65.1 °F 73% 29.88 in 10.0 mi North 8.1 mph - N/A   Scattered Clouds
8:35 PM 72.0 °F - 65.3 °F 79% 29.89 in 10.0 mi NNE 4.6 mph - N/A   Clear
8:36 PM 71.8 °F - 65.3 °F 80% 29.89 in 10.0 mi Calm Calm - N/A   Clear
8:59 PM 69.8 °F - 64.6 °F 83% 29.90 in 10.0 mi North 3.5 mph - N/A   Clear
9:17 PM 68.4 °F - 64.4 °F 87% 29.90 in 10.0 mi Calm Calm - N/A   Clear
9:35 PM 68.0 °F - 64.4 °F 88% 29.90 in 10.0 mi North 3.5 mph - N/A   Clear
9:55 PM 67.8 °F - 63.9 °F 87% 29.91 in 10.0 mi Calm Calm - N/A   Clear
9:56 PM 68.0 °F - 63.9 °F 87% 29.91 in 10.0 mi Calm Calm - N/A   Clear
10:15 PM 68.0 °F - 64.2 °F 88% 29.91 in 10.0 mi Calm Calm - N/A   Clear
10:38 PM 66.7 °F - 63.7 °F 90% 29.92 in 10.0 mi Calm Calm - N/A   Clear
10:56 PM 67.3 °F - 63.1 °F 87% 29.93 in 10.0 mi Calm Calm - N/A   Clear
11:15 PM 67.6 °F - 62.6 °F 84% 29.94 in 10.0 mi Calm Calm - N/A   Clear
11:16 PM 67.6 °F - 62.6 °F 84% 29.94 in 10.0 mi Calm Calm - N/A   Clear
11:35 PM 66.2 °F - 62.6 °F 88% 29.95 in 10.0 mi Calm Calm - N/A   Clear
11:36 PM 66.2 °F - 62.6 °F 88% 29.95 in 10.0 mi Calm Calm - N/A   Clear
11:59 PM 64.8 °F - 62.4 °F 92% 29.96 in 10.0 mi Calm Calm - N/A   Clear